Back to catalog

STARLINK-2170

AliveCommunicationsVLEO
NORAD 47753·PAYLOAD·🇺🇸 United States

Launched Mar 4, 2021 from Cape Canaveral Space Force Station

Loading…

Next Passes (next 24 hours)

TLE

FreshSource: CelesTrak SupGP

Epoch: Sep 14, 2026, 13:48 UTC

1 47753C 21017AH  26257.57548611 -.00004020  00000+0 -12016-3 0  2573
2 47753  53.1598  44.5934 0001294 323.4936 191.5995 15.34028077    11

Track STARLINK-2170 in real time with AllMySat

Download on the App Store